QPF
0.00 0.00 0.00 0.00 0.00 0.00 0.00 0.00 0.00 0.00 0.00 0.00 0.00 0.00 0.00 0.00 0.00 0.00 0.00 0.00 0.00 0.00 0.01 0.02 0.05 0.11 0.17 0.17 0.21 0.28 0.35 0.35 0.33 0.30 0.24 0.20 0.18 0.20 0.15 0.13 0.13 0.13 0.15 0.22
0.00 0.00 0.00 0.00 0.00 0.00 0.00 0.00 0.00 0.00 0.00 0.00 0.00 0.00 0.00 0.00 0.00 0.00 0.00 0.00 0.00 0.01 0.01 0.02 0.06 0.12 0.13 0.14 0.13 0.14 0.18 0.23 0.25 0.26 0.24 0.21 0.18 0.13 0.11 0.15 0.18 0.21 0.26 0.32
0.00 0.00 0.00 0.00 0.00 0.00 0.00 0.00 0.00 0.00 0.00 0.00 0.00 0.00 0.00 0.00 0.00 0.00 0.00 0.01 0.01 0.01 0.02 0.02 0.01 0.02 0.04 0.04 0.06 0.08 0.09 0.11 0.11 0.12 0.14 0.18 0.19 0.13 0.13 0.18 0.21 0.27 0.37 0.44
0.00 0.00 0.00 0.00 0.00 0.00 0.00 0.00 0.00 0.00 0.00 0.00 0.00 0.00 0.00 0.00 0.00 0.00 0.01 0.02 0.04 0.06 0.04 0.01 0.01 0.00 0.01 0.01 0.01 0.02 0.02 0.03 0.03 0.03 0.05 0.09 0.10 0.09 0.12 0.20 0.16 0.14 0.18 0.24
0.00 0.00 0.00 0.00 0.00 0.00 0.00 0.00 0.00 0.00 0.00 0.00 0.00 0.00 0.00 0.00 0.01 0.01 0.03 0.05 0.06 0.05 0.02 0.01 0.00 0.00 0.00 0.00 0.00 0.00 0.00 0.00 0.00 0.01 0.02 0.03 0.03 0.04 0.05 0.08 0.07 0.05 0.06 0.09
0.00 0.00 0.00 0.00 0.00 0.00 0.00 0.00 0.00 0.00 0.00 0.00 0.00 0.01 0.01 0.01 0.01 0.01 0.02 0.02 0.01 0.01 0.00 0.00 0.00 0.00 0.00 0.00 0.00 0.00 0.00 0.00 0.00 0.00 0.01 0.01 0.01 0.01 0.01 0.02 0.03 0.03 0.05 0.05
0.00 0.00 0.00 0.00 0.00 0.00 0.00 0.00 0.00 0.00 0.00 0.00 0.00 0.01 0.01 0.01 0.01 0.02 0.02 0.01 0.00 0.00 0.00 0.00 0.00 0.00 0.00 0.00 0.00 0.00 0.00 0.00 0.00 0.00 0.00 0.00 0.00 0.00 0.00 0.01 0.01 0.02 0.02 0.03
0.00 0.00 0.01 0.00 0.00 0.00 0.00 0.00 0.00 0.00 0.00 0.00 0.00 0.01 0.01 0.01 0.01 0.02 0.01 0.01 0.00 0.00 0.00 0.00 0.00 0.00 0.00 0.00 0.00 0.00 0.00 0.00 0.00 0.00 0.00 0.00 0.00 0.00 0.00 0.01 0.01 0.01 0.02 0.03
0.00 0.00 0.00 0.01 0.01 0.00 0.00 0.00 0.00 0.00 0.00 0.00 0.00 0.00 0.01 0.01 0.01 0.01 0.00 0.00 0.00 0.00 0.00 0.00 0.00 0.00 0.00 0.00 0.00 0.00 0.00 0.00 0.00 0.00 0.00 0.00 0.00 0.00 0.00 0.01 0.01 0.01 0.02 0.03
0.00 0.00 0.00 0.00 0.00 0.00 0.01 0.00 0.00 0.00 0.00 0.00 0.00 0.00 0.00 0.00 0.00 0.00 0.00 0.00 0.00 0.00 0.00 0.00 0.00 0.00 0.00 0.00 0.00 0.00 0.00 0.00 0.00 0.00 0.00 0.00 0.00 0.00 0.00 0.01 0.01 0.01 0.02 0.03
0.00 0.00 0.00 0.00 0.00 0.00 0.01 0.01 0.00 0.00 0.00 0.00 0.00 0.00 0.00 0.00 0.00 0.00 0.00 0.00 0.00 0.00 0.00 0.00 0.00 0.00 0.00 0.00 0.00 0.00 0.00 0.00 0.00 0.00 0.00 0.00 0.00 0.00 0.00 0.01 0.01 0.01 0.02 0.03
0.00 0.00 0.00 0.00 0.00 0.01 0.01 0.01 0.00 0.00 0.00 0.00 0.00 0.00 0.00 0.00 0.00 0.00 0.00 0.00 0.00 0.00 0.00 0.00 0.00 0.00 0.00 0.00 0.00 0.00 0.00 0.00 0.00 0.00 0.00 0.00 0.00 0.00 0.00 0.00 0.01 0.01 0.02 0.03
0.00 0.00 0.00 0.00 0.00 0.00 0.01 0.01 0.01 0.00 0.00 0.00 0.00 0.00 0.00 0.00 0.00 0.00 0.00 0.00 0.00 0.00 0.00 0.00 0.00 0.00 0.00 0.00 0.00 0.00 0.00 0.00 0.00 0.00 0.00 0.00 0.00 0.00 0.00 0.00 0.01 0.01 0.01 0.03
0.00 0.00 0.00 0.00 0.00 0.00 0.00 0.00 0.00 0.00 0.00 0.00 0.00 0.00 0.00 0.00 0.00 0.00 0.00 0.00 0.00 0.00 0.00 0.00 0.00 0.00 0.00 0.00 0.00 0.00 0.00 0.00 0.00 0.00 0.00 0.00 0.00 0.00 0.00 0.00 0.00 0.01 0.01 0.02
0.00 0.00 0.00 0.00 0.00 0.00 0.00 0.00 0.00 0.00 0.00 0.00 0.00 0.00 0.00 0.00 0.00 0.00 0.00 0.00 0.00 0.00 0.00 0.00 0.00 0.00 0.00 0.00 0.00 0.00 0.00 0.00 0.00 0.00 0.00 0.00 0.01 0.00 0.00 0.00 0.00 0.00 0.00 0.01
0.00 0.00 0.00 0.00 0.00 0.00 0.00 0.00 0.00 0.00 0.00 0.00 0.00 0.00 0.00 0.00 0.00 0.00 0.00 0.00 0.00 0.00 0.00 0.00 0.00 0.00 0.00 0.00 0.00 0.00 0.00 0.00 0.00 0.00 0.00 0.01 0.01 0.00 0.00 0.00 0.00 0.00 0.00 0.01
0.00 0.00 0.00 0.00 0.00 0.00 0.00 0.00 0.00 0.00 0.00 0.00 0.00 0.00 0.01 0.00 0.00 0.00 0.00 0.00 0.00 0.00 0.00 0.00 0.00 0.00 0.00 0.00 0.00 0.00 0.00 0.00 0.00 0.00 0.01 0.01 0.01 0.01 0.00 0.00 0.00 0.00 0.00 0.01
0.00 0.00 0.00 0.00 0.00 0.00 0.00 0.00 0.00 0.01 0.01 0.01 0.01 0.01 0.01 0.01 0.00 0.00 0.00 0.00 0.00 0.00 0.00 0.00 0.00 0.00 0.00 0.00 0.00 0.00 0.00 0.00 0.01 0.01 0.01 0.01 0.01 0.01 0.00 0.00 0.00 0.00 0.00 0.00
0.00 0.00 0.00 0.00 0.00 0.00 0.01 0.01 0.02 0.01 0.01 0.01 0.01 0.01 0.01 0.01 0.00 0.00 0.00 0.00 0.00 0.00 0.00 0.00 0.01 0.01 0.00 0.00 0.01 0.01 0.01 0.02 0.02 0.02 0.01 0.01 0.02 0.02 0.01 0.00 0.00 0.00 0.00 0.00
0.00 0.00 0.00 0.00 0.01 0.01 0.01 0.02 0.03 0.02 0.03 0.02 0.02 0.02 0.01 0.00 0.01 0.00 0.00 0.00 0.00 0.00 0.00 0.00 0.01 0.01 0.01 0.01 0.02 0.02 0.03 0.04 0.04 0.04 0.03 0.03 0.02 0.02 0.01 0.01 0.00 0.00 0.00 0.00
0.00 0.00 0.01 0.02 0.03 0.03 0.01 0.03 0.03 0.05 0.06 0.03 0.01 0.01 0.01 0.01 0.01 0.01 0.00 0.00 0.00 0.00 0.00 0.01 0.01 0.02 0.02 0.02 0.04 0.05 0.05 0.06 0.06 0.06 0.06 0.05 0.04 0.03 0.02 0.01 0.01 0.00 0.00 0.00
0.00 0.01 0.01 0.02 0.04 0.06 0.02 0.01 0.01 0.02 0.01 0.01 0.01 0.01 0.01 0.01 0.00 0.00 0.00 0.00 0.00 0.00 0.00 0.01 0.01 0.01 0.02 0.04 0.07 0.09 0.09 0.08 0.09 0.10 0.10 0.09 0.07 0.04 0.02 0.02 0.02 0.02 0.01 0.01
0.00 0.01 0.01 0.02 0.02 0.01 0.00 0.00 0.00 0.01 0.01 0.01 0.01 0.01 0.01 0.00 0.00 0.00 0.00 0.00 0.00 0.00 0.00 0.01 0.01 0.01 0.02 0.05 0.10 0.13 0.13 0.14 0.15 0.14 0.13 0.11 0.10 0.07 0.05 0.04 0.03 0.02 0.02 0.01
0.00 0.01 0.01 0.02 0.00 0.00 0.00 0.00 0.01 0.01 0.01 0.00 0.00 0.00 0.00 0.00 0.00 0.00 0.00 0.00 0.00 0.00 0.00 0.01 0.01 0.01 0.01 0.03 0.08 0.15 0.20 0.23 0.21 0.18 0.15 0.13 0.12 0.09 0.06 0.06 0.05 0.03 0.01 0.01
0.00 0.00 0.00 0.01 0.00 0.00 0.00 0.00 0.00 0.00 0.00 0.00 0.00 0.00 0.00 0.00 0.00 0.00 0.00 0.00 0.00 0.00 0.00 0.01 0.01 0.01 0.01 0.01 0.05 0.13 0.22 0.26 0.27 0.24 0.20 0.17 0.14 0.11 0.09 0.08 0.07 0.04 0.02 0.01
0.00 0.00 0.00 0.00 0.00 0.00 0.00 0.00 0.00 0.00 0.00 0.00 0.00 0.00 0.00 0.00 0.00 0.00 0.00 0.00 0.00 0.00 0.00 0.01 0.01 0.01 0.01 0.01 0.03 0.09 0.19 0.28 0.31 0.31 0.31 0.26 0.20 0.15 0.10 0.08 0.06 0.04 0.03 0.02
MSLP
1012.45 1013.05 1013.44 1013.64 1013.67 1013.58 1013.43 1013.25 1013.07 1012.88 1012.68 1012.42 1012.10 1011.71 1011.27 1010.81 1010.38 1010.05 1009.83 1009.74 1009.78 1009.90 1010.06 1010.20 1010.28 1010.28 1010.21 1010.08 1009.94 1009.84 1009.82 1009.88 1010.02 1010.21 1010.41 1010.57 1010.63 1010.57 1010.39 1010.10 1009.76 1009.40 1009.10 1008.89
1012.74 1013.16 1013.39 1013.47 1013.45 1013.38 1013.34 1013.33 1013.36 1013.40 1013.41 1013.32 1013.10 1012.74 1012.27 1011.74 1011.22 1010.77 1010.45 1010.29 1010.28 1010.37 1010.52 1010.65 1010.71 1010.69 1010.57 1010.39 1010.20 1010.04 1009.98 1010.02 1010.15 1010.35 1010.55 1010.70 1010.74 1010.63 1010.38 1010.01 1009.57 1009.13 1008.75 1008.48
1012.78 1013.01 1013.09 1013.07 1013.04 1013.05 1013.17 1013.38 1013.68 1013.98 1014.21 1014.28 1014.16 1013.83 1013.30 1012.66 1011.99 1011.40 1010.94 1010.66 1010.56 1010.61 1010.73 1010.85 1010.91 1010.88 1010.75 1010.55 1010.33 1010.16 1010.07 1010.10 1010.24 1010.44 1010.65 1010.81 1010.84 1010.71 1010.42 1009.99 1009.49 1008.98 1008.54 1008.22
1012.62 1012.67 1012.62 1012.56 1012.56 1012.70 1013.01 1013.49 1014.06 1014.63 1015.08 1015.31 1015.26 1014.92 1014.31 1013.52 1012.67 1011.88 1011.24 1010.82 1010.60 1010.58 1010.66 1010.78 1010.85 1010.84 1010.72 1010.53 1010.32 1010.15 1010.06 1010.10 1010.24 1010.45 1010.68 1010.85 1010.89 1010.77 1010.47 1010.02 1009.48 1008.93 1008.43 1008.06
1012.38 1012.28 1012.14 1012.06 1012.14 1012.44 1012.97 1013.71 1014.54 1015.35 1016.00 1016.35 1016.34 1015.95 1015.22 1014.26 1013.21 1012.21 1011.37 1010.77 1010.43 1010.32 1010.37 1010.48 1010.58 1010.60 1010.52 1010.37 1010.19 1010.04 1009.97 1010.01 1010.16 1010.39 1010.64 1010.83 1010.90 1010.79 1010.51 1010.06 1009.52 1008.93 1008.39 1007.96
1012.19 1011.98 1011.79 1011.74 1011.91 1012.37 1013.11 1014.06 1015.12 1016.12 1016.90 1017.32 1017.31 1016.84 1015.98 1014.84 1013.58 1012.37 1011.34 1010.58 1010.12 1009.93 1009.94 1010.06 1010.19 1010.25 1010.24 1010.14 1010.00 1009.88 1009.83 1009.88 1010.04 1010.28 1010.55 1010.76 1010.86 1010.79 1010.54 1010.11 1009.57 1008.97 1008.38 1007.89
1012.16 1011.89 1011.69 1011.68 1011.95 1012.53 1013.43 1014.55 1015.75 1016.85 1017.69 1018.12 1018.06 1017.51 1016.51 1015.21 1013.79 1012.41 1011.22 1010.33 1009.78 1009.53 1009.52 1009.64 1009.80 1009.92 1009.96 1009.92 1009.82 1009.73 1009.70 1009.76 1009.93 1010.17 1010.45 1010.68 1010.81 1010.78 1010.56 1010.17 1009.63 1009.01 1008.38 1007.81
1012.35 1012.06 1011.88 1011.92 1012.26 1012.93 1013.90 1015.09 1016.33 1017.45 1018.27 1018.66 1018.53 1017.88 1016.78 1015.37 1013.83 1012.35 1011.08 1010.12 1009.51 1009.23 1009.21 1009.35 1009.54 1009.70 1009.78 1009.78 1009.72 1009.65 1009.62 1009.68 1009.84 1010.08 1010.36 1010.61 1010.77 1010.78 1010.59 1010.22 1009.70 1009.06 1008.39 1007.74
1012.74 1012.48 1012.33 1012.41 1012.78 1013.48 1014.45 1015.60 1016.79 1017.83 1018.57 1018.86 1018.64 1017.92 1016.77 1015.32 1013.76 1012.27 1010.99 1010.02 1009.41 1009.13 1009.11 1009.26 1009.46 1009.64 1009.74 1009.76 1009.71 1009.64 1009.60 1009.65 1009.79 1010.02 1010.29 1010.55 1010.73 1010.77 1010.63 1010.29 1009.77 1009.13 1008.41 1007.69
1013.25 1013.05 1012.95 1013.06 1013.43 1014.07 1014.96 1016.00 1017.04 1017.94 1018.53 1018.71 1018.43 1017.67 1016.53 1015.13 1013.64 1012.22 1011.02 1010.11 1009.54 1009.29 1009.28 1009.42 1009.61 1009.77 1009.85 1009.84 1009.77 1009.67 1009.61 1009.62 1009.74 1009.94 1010.21 1010.48 1010.68 1010.76 1010.65 1010.35 1009.86 1009.22 1008.48 1007.71
1013.75 1013.64 1013.60 1013.72 1014.05 1014.61 1015.35 1016.21 1017.05 1017.76 1018.19 1018.27 1017.94 1017.21 1016.15 1014.88 1013.55 1012.30 1011.23 1010.44 1009.94 1009.72 1009.70 1009.81 1009.95 1010.05 1010.06 1009.99 1009.85 1009.70 1009.59 1009.55 1009.63 1009.81 1010.07 1010.34 1010.58 1010.69 1010.64 1010.40 1009.96 1009.35 1008.61 1007.83
1014.14 1014.12 1014.15 1014.27 1014.55 1014.99 1015.57 1016.22 1016.85 1017.36 1017.65 1017.65 1017.31 1016.66 1015.76 1014.68 1013.57 1012.53 1011.66 1011.00 1010.59 1010.39 1010.34 1010.38 1010.42 1010.41 1010.32 1010.14 1009.91 1009.67 1009.49 1009.40 1009.43 1009.58 1009.82 1010.11 1010.37 1010.55 1010.57 1010.41 1010.05 1009.51 1008.83 1008.07
1014.34 1014.42 1014.50 1014.64 1014.87 1015.19 1015.61 1016.07 1016.51 1016.86 1017.04 1016.99 1016.70 1016.17 1015.46 1014.63 1013.77 1012.96 1012.28 1011.77 1011.42 1011.22 1011.12 1011.05 1010.96 1010.80 1010.56 1010.25 1009.90 1009.56 1009.29 1009.13 1009.10 1009.22 1009.45 1009.75 1010.05 1010.29 1010.40 1010.34 1010.10 1009.67 1009.10 1008.43
1014.36 1014.52 1014.66 1014.81 1015.00 1015.24 1015.54 1015.85 1016.15 1016.38 1016.49 1016.45 1016.24 1015.87 1015.36 1014.77 1014.15 1013.57 1013.07 1012.67 1012.36 1012.13 1011.94 1011.74 1011.50 1011.17 1010.78 1010.32 1009.84 1009.39 1009.02 1008.77 1008.69 1008.75 1008.96 1009.26 1009.60 1009.90 1010.12 1010.19 1010.09 1009.81 1009.39 1008.85
1014.26 1014.48 1014.67 1014.84 1015.02 1015.22 1015.44 1015.67 1015.88 1016.05 1016.15 1016.15 1016.04 1015.81 1015.50 1015.12 1014.72 1014.32 1013.95 1013.62 1013.32 1013.03 1012.73 1012.39 1011.99 1011.50 1010.95 1010.35 1009.75 1009.19 1008.72 1008.40 1008.23 1008.24 1008.40 1008.68 1009.04 1009.40 1009.70 1009.91 1009.97 1009.87 1009.63 1009.27
1014.14 1014.40 1014.63 1014.83 1015.03 1015.22 1015.42 1015.62 1015.80 1015.97 1016.08 1016.14 1016.12 1016.03 1015.87 1015.65 1015.39 1015.11 1014.81 1014.50 1014.18 1013.82 1013.41 1012.94 1012.40 1011.78 1011.11 1010.40 1009.70 1009.04 1008.49 1008.07 1007.81 1007.74 1007.83 1008.07 1008.41 1008.79 1009.17 1009.49 1009.71 1009.80 1009.75 1009.59
1014.13 1014.40 1014.66 1014.90 1015.12 1015.34 1015.56 1015.77 1015.97 1016.15 1016.30 1016.41 1016.46 1016.45 1016.38 1016.26 1016.07 1015.84 1015.56 1015.23 1014.85 1014.41 1013.91 1013.35 1012.71 1012.01 1011.26 1010.48 1009.72 1009.00 1008.37 1007.86 1007.51 1007.33 1007.32 1007.47 1007.75 1008.13 1008.54 1008.95 1009.29 1009.55 1009.70 1009.73
1014.32 1014.59 1014.86 1015.13 1015.39 1015.65 1015.91 1016.15 1016.38 1016.58 1016.75 1016.88 1016.96 1016.98 1016.93 1016.82 1016.63 1016.38 1016.06 1015.68 1015.24 1014.74 1014.18 1013.56 1012.89 1012.17 1011.40 1010.62 1009.84 1009.09 1008.40 1007.81 1007.35 1007.05 1006.91 1006.93 1007.11 1007.43 1007.83 1008.27 1008.71 1009.11 1009.42 1009.64
1014.76 1015.01 1015.29 1015.57 1015.87 1016.16 1016.45 1016.72 1016.96 1017.17 1017.33 1017.44 1017.49 1017.47 1017.38 1017.21 1016.96 1016.64 1016.26 1015.81 1015.31 1014.77 1014.19 1013.57 1012.92 1012.23 1011.52 1010.78 1010.03 1009.28 1008.56 1007.90 1007.33 1006.89 1006.60 1006.47 1006.52 1006.72 1007.07 1007.50 1007.99 1008.48 1008.93 1009.30
1015.43 1015.66 1015.93 1016.22 1016.53 1016.83 1017.12 1017.39 1017.61 1017.79 1017.90 1017.95 1017.92 1017.81 1017.62 1017.34 1016.99 1016.57 1016.10 1015.59 1015.05 1014.49 1013.92 1013.35 1012.77 1012.17 1011.55 1010.89 1010.21 1009.49 1008.77 1008.05 1007.39 1006.81 1006.36 1006.07 1005.96 1006.03 1006.28 1006.68 1007.17 1007.71 1008.26 1008.75
1016.26 1016.48 1016.73 1017.01 1017.30 1017.58 1017.84 1018.06 1018.22 1018.32 1018.34 1018.28 1018.14 1017.90 1017.58 1017.17 1016.70 1016.18 1015.62 1015.05 1014.48 1013.93 1013.41 1012.91 1012.42 1011.94 1011.43 1010.89 1010.29 1009.63 1008.92 1008.18 1007.44 1006.75 1006.15 1005.70 1005.43 1005.37 1005.50 1005.83 1006.30 1006.86 1007.47 1008.06
1017.17 1017.38 1017.61 1017.84 1018.08 1018.30 1018.48 1018.61 1018.68 1018.66 1018.56 1018.37 1018.08 1017.71 1017.25 1016.72 1016.13 1015.51 1014.88 1014.26 1013.68 1013.15 1012.68 1012.26 1011.88 1011.51 1011.13 1010.70 1010.20 1009.61 1008.93 1008.18 1007.39 1006.61 1005.90 1005.32 1004.92 1004.72 1004.75 1005.00 1005.43 1005.99 1006.64 1007.31
1018.05 1018.25 1018.45 1018.62 1018.78 1018.90 1018.97 1018.97 1018.90 1018.75 1018.51 1018.18 1017.76 1017.25 1016.67 1016.03 1015.35 1014.66 1013.97 1013.33 1012.74 1012.23 1011.80 1011.45 1011.15 1010.88 1010.60 1010.27 1009.86 1009.34 1008.71 1007.97 1007.17 1006.35 1005.57 1004.90 1004.40 1004.10 1004.05 1004.22 1004.61 1005.16 1005.83 1006.55
1018.82 1019.02 1019.16 1019.26 1019.31 1019.30 1019.23 1019.08 1018.86 1018.56 1018.18 1017.72 1017.19 1016.58 1015.92 1015.20 1014.47 1013.73 1013.01 1012.34 1011.75 1011.25 1010.84 1010.53 1010.28 1010.08 1009.86 1009.60 1009.26 1008.81 1008.22 1007.53 1006.75 1005.93 1005.13 1004.42 1003.87 1003.51 1003.40 1003.52 1003.87 1004.41 1005.09 1005.84
1019.44 1019.62 1019.70 1019.70 1019.62 1019.46 1019.22 1018.92 1018.55 1018.11 1017.61 1017.06 1016.44 1015.78 1015.07 1014.32 1013.56 1012.81 1012.08 1011.40 1010.80 1010.29 1009.88 1009.57 1009.33 1009.13 1008.95 1008.72 1008.43 1008.03 1007.50 1006.86 1006.13 1005.35 1004.58 1003.88 1003.32 1002.95 1002.81 1002.90 1003.23 1003.75 1004.42 1005.19
1019.89 1020.01 1020.01 1019.90 1019.67 1019.36 1018.96 1018.51 1018.00 1017.45 1016.86 1016.24 1015.59 1014.91 1014.20 1013.46 1012.71 1011.96 1011.24 1010.55 1009.93 1009.40 1008.95 1008.60 1008.33 1008.11 1007.91 1007.69 1007.42 1007.06 1006.59 1006.02 1005.36 1004.65 1003.95 1003.30 1002.77 1002.42 1002.27 1002.35 1002.66 1003.16 1003.82 1004.59
Thickness
5775 5758 5748 5759 5768 5771 5774 5773 5771 5783 5802 5797 5789 5793 5804 5814 5813 5807 5803 5801 5799 5797 5801 5803 5801 5797 5792 5786 5782 5776 5770 5768 5767 5763 5760 5759 5759 5763 5765 5766 5766 5764 5763 5762
5752 5749 5769 5780 5785 5783 5776 5764 5764 5775 5791 5788 5781 5783 5793 5800 5801 5800 5794 5792 5792 5791 5793 5794 5793 5789 5783 5777 5773 5769 5765 5761 5758 5755 5753 5753 5753 5755 5757 5758 5758 5757 5756 5755
5747 5764 5788 5785 5778 5772 5767 5760 5761 5764 5774 5778 5771 5759 5769 5782 5790 5791 5788 5787 5788 5788 5786 5785 5784 5781 5778 5773 5768 5764 5760 5756 5753 5750 5747 5745 5744 5744 5744 5745 5747 5748 5748 5748
5764 5781 5783 5776 5771 5770 5753 5772 5772 5767 5752 5741 5752 5725 5751 5762 5766 5771 5772 5774 5776 5779 5780 5779 5779 5776 5773 5770 5766 5760 5755 5750 5747 5743 5738 5734 5730 5728 5730 5732 5736 5738 5739 5739
5758 5773 5772 5766 5771 5774 5766 5777 5769 5761 5748 5735 5738 5725 5732 5750 5746 5752 5760 5765 5768 5771 5774 5774 5774 5773 5771 5767 5760 5754 5749 5744 5740 5737 5732 5727 5723 5722 5723 5724 5726 5728 5730 5731
5767 5780 5778 5775 5781 5780 5775 5763 5750 5737 5724 5708 5727 5720 5717 5732 5742 5747 5754 5760 5764 5768 5770 5771 5771 5769 5764 5760 5753 5746 5740 5735 5732 5728 5724 5720 5716 5714 5714 5714 5716 5718 5720 5722
5749 5762 5774 5781 5766 5766 5759 5724 5698 5695 5688 5696 5722 5716 5716 5742 5751 5753 5754 5759 5763 5765 5763 5761 5759 5756 5752 5747 5741 5736 5730 5724 5722 5718 5714 5711 5708 5706 5704 5704 5706 5708 5710 5712
5729 5729 5759 5770 5762 5751 5751 5725 5693 5683 5681 5691 5710 5709 5724 5751 5756 5758 5758 5758 5758 5756 5754 5752 5749 5745 5741 5737 5731 5726 5720 5715 5712 5708 5704 5701 5698 5695 5694 5694 5695 5697 5699 5702
5729 5731 5763 5772 5774 5763 5746 5732 5723 5698 5698 5689 5697 5716 5731 5745 5745 5747 5747 5747 5747 5747 5746 5744 5742 5738 5734 5729 5724 5720 5714 5708 5704 5699 5694 5689 5686 5684 5682 5683 5683 5685 5687 5691
5746 5732 5747 5763 5768 5764 5755 5741 5712 5697 5681 5674 5687 5698 5704 5726 5731 5736 5738 5739 5742 5743 5741 5739 5736 5733 5729 5725 5720 5715 5709 5703 5697 5691 5686 5680 5676 5673 5672 5671 5671 5672 5674 5677
5747 5724 5728 5738 5738 5735 5740 5733 5715 5694 5686 5671 5668 5685 5721 5726 5731 5732 5732 5733 5734 5734 5732 5730 5729 5727 5724 5720 5715 5709 5704 5697 5691 5685 5678 5673 5668 5664 5661 5659 5659 5660 5662 5664
5742 5717 5709 5722 5740 5750 5744 5733 5711 5692 5688 5683 5672 5682 5720 5724 5725 5725 5723 5724 5724 5723 5721 5721 5720 5718 5716 5712 5708 5704 5699 5693 5687 5680 5673 5667 5661 5657 5653 5650 5649 5649 5649 5651
5740 5712 5693 5698 5712 5729 5730 5733 5726 5705 5690 5679 5671 5681 5709 5713 5713 5713 5711 5710 5709 5709 5708 5706 5705 5703 5703 5702 5700 5697 5692 5687 5682 5675 5668 5661 5655 5650 5646 5642 5640 5639 5639 5639
5745 5715 5699 5691 5698 5711 5714 5723 5727 5711 5684 5680 5683 5683 5689 5694 5695 5697 5697 5696 5696 5695 5693 5691 5688 5687 5687 5688 5688 5687 5685 5682 5677 5670 5663 5656 5650 5645 5640 5636 5633 5631 5630 5630
5738 5715 5716 5713 5719 5722 5719 5721 5724 5715 5707 5691 5683 5677 5678 5682 5683 5684 5685 5685 5683 5680 5678 5674 5671 5670 5671 5672 5673 5676 5676 5675 5672 5665 5659 5652 5647 5641 5635 5631 5628 5625 5623 5623
5733 5720 5719 5714 5722 5721 5714 5715 5715 5706 5701 5690 5678 5667 5673 5675 5673 5670 5668 5668 5664 5662 5662 5661 5659 5658 5657 5658 5660 5663 5666 5667 5665 5661 5656 5650 5643 5636 5631 5627 5623 5620 5618 5617
5725 5715 5706 5696 5709 5707 5691 5697 5692 5680 5677 5675 5662 5658 5661 5660 5657 5652 5651 5650 5647 5646 5646 5645 5645 5644 5644 5645 5646 5649 5655 5658 5658 5656 5652 5647 5640 5633 5628 5624 5619 5615 5613 5611
5724 5709 5695 5689 5692 5681 5686 5697 5687 5670 5660 5660 5654 5649 5647 5645 5646 5643 5640 5634 5631 5630 5628 5627 5627 5629 5630 5632 5634 5638 5643 5647 5649 5649 5647 5644 5638 5631 5626 5620 5616 5612 5609 5607
5733 5711 5690 5677 5673 5680 5684 5681 5673 5662 5643 5642 5637 5634 5632 5632 5635 5634 5629 5621 5615 5612 5610 5609 5609 5611 5613 5615 5618 5622 5628 5632 5636 5639 5640 5640 5636 5630 5623 5618 5614 5609 5605 5603
5720 5707 5688 5674 5665 5656 5664 5667 5669 5658 5631 5625 5622 5618 5616 5614 5607 5610 5613 5608 5604 5600 5597 5595 5595 5595 5595 5597 5600 5603 5608 5614 5619 5624 5630 5634 5633 5628 5623 5618 5613 5608 5604 5601
5693 5685 5676 5665 5658 5656 5641 5651 5658 5637 5620 5612 5608 5603 5598 5591 5587 5590 5590 5587 5584 5581 5579 5578 5576 5575 5575 5577 5579 5582 5588 5594 5602 5610 5617 5623 5627 5625 5622 5617 5612 5607 5602 5598
5671 5663 5657 5651 5646 5638 5628 5628 5617 5606 5605 5600 5595 5589 5583 5579 5577 5575 5572 5569 5566 5563 5561 5557 5555 5554 5554 5553 5555 5560 5565 5575 5585 5595 5604 5612 5618 5621 5619 5614 5609 5605 5601 5595
5655 5648 5643 5635 5625 5615 5613 5608 5603 5596 5589 5585 5579 5575 5570 5565 5562 5559 5556 5553 5549 5546 5542 5539 5536 5535 5534 5532 5533 5536 5545 5554 5564 5576 5587 5597 5608 5613 5615 5611 5608 5603 5599 5595
5645 5644 5634 5621 5613 5608 5603 5598 5592 5585 5578 5574 5568 5562 5555 5549 5547 5543 5540 5537 5533 5530 5527 5523 5520 5518 5518 5516 5516 5518 5526 5535 5545 5557 5570 5583 5593 5602 5607 5608 5607 5603 5599 5595
5628 5626 5620 5606 5600 5595 5592 5586 5581 5575 5568 5561 5555 5548 5541 5535 5532 5529 5527 5524 5522 5520 5518 5513 5509 5508 5508 5507 5505 5507 5512 5519 5528 5540 5555 5568 5581 5593 5599 5602 5605 5605 5604 5601
5614 5605 5598 5590 5586 5576 5574 5574 5570 5561 5554 5547 5540 5534 5529 5521 5516 5515 5513 5512 5511 5510 5509 5506 5504 5503 5503 5501 5500 5500 5502 5507 5515 5526 5540 5553 5568 5582 5591 5596 5598 5600 5601 5599